sat.trackr.live / text

‹ back to catalog

2025-055H

NORAD 63298 · 2025-055H

PAYLOAD ACTIVE UNKNOWN

§ Identity

Operator
Country
PRC
Launch date
2025-03-17
Launch site
JSC
Launch vehicle
Mass (kg)
RCS (m²)

External: N2YO · Heavens-Above · Gunter

§ Orbital elements

Epoch: 2026-09-22T21:39:40.023648Z

Period
93.06 min
Inclination
97.6640°
Eccentricity
0.0004579
Mean motion
15.47368869 rev/d
Perigee alt
421.3 km
Apogee alt
427.5 km
Semi-major
6,802.6 km
B*
9.9984e-4
RAAN
57.3819°
Arg perigee
155.7760°
Mean anomaly
204.3706°
Rev number
8,451

§ Raw data

2025-055H1 63298U 25055H   26265.90254657  .00051308  00000+0  99984-3 0  99922 63298  97.6640  57.3819 0004579 155.7760 204.3706 15.47368869 84518

JSON: /api/v1/satellites/63298 · /tle

For live sub-satellite position, see the globe view (requires WebGL).

§ Visibility from observer

Set your observer location to see the next 7 days of passes ≥ 10°. The values pass through the URL so the page stays shareable.

No JS? Fill the form by hand. The geolocation button needs JavaScript.

§ Radio — SatNOGS DB

ModeDescriptionDownlinkUplink
FSK Mode U - Transmitter 437.125 MHz

1 transmitter · refreshed weekly from db.satnogs.org